Regional Weather Roundup
Issued by NWS

Home | Current Version | Previous Version | Graphics & Text | Print | Product List | Glossary Off
Versions: 1 2 3 4 5 6 7 8 9 10 11 12 13 14 15 16 17 18 19 20 21 22 23 24 25 26 27 28 29 30 31 32 33 34 35 36 37 38 39 40 41 42 43 44 45 46 47 48 49 50

000
ASUS43 KDTX 281110
RWRMI
MICHIGAN HOURLY REGIONAL WEATHER ROUNDUP
NATIONAL WEATHER SERVICE DETROIT/PONTIAC MI
700 AM EDT FRI APR 28 2017

NOTE: "FAIR" INDICATES FEW OR NO CLOUDS BELOW 12,000 FEET WITH NO
SIGNIFICANT WEATHER AND/OR OBSTRUCTION TO VISIBILITY.

MIZ047>049-052>055-059>063-066>070-074>076-081>083-281200-
SOUTHEAST LOWER MICHIGAN

CITY           SKY/WX    TMP DP  RH WIND       PRES   REMARKS
ADRIAN         PTCLDY    43  38  82 S3        29.94F
ALMA           CLOUDY    45  37  72 SW10G16   29.89S
ANN ARBOR      PTCLDY    40  38  93 SE5       29.93F
BAD AXE        CLOUDY    44  35  70 SW16G22   29.90R
CARO           CLOUDY    44  35  69 SW8       29.90S
DETROIT CITY   CLOUDY    47  38  71 SW5       29.95S
DETROIT        MOCLDY    45  39  79 S7        29.96S
FLINT          CLOUDY    45  36  70 W9        29.91S
GROSSE ILE     CLEAR     46  39  76 SW7       29.95F
HILLSDALE      MOCLDY    41  37  87 SE6       29.91S
HOWELL         CLOUDY    43  35  74 SW5       29.91S

CITY           SKY/WX    TMP DP  RH WIND       PRES   REMARKS
JACKSON        PTCLDY    40  37  89 SE6       29.91F
LAMBERTVILLE   CLOUDY    42  38  87 CALM      29.95F
LANSING        CLOUDY    45  35  68 SW7       29.91F
LAPEER         CLOUDY    47  35  63 W10G17    29.91F
MASON          CLOUDY    44  37  77 CALM      29.91F
MONROE         PTCLDY    43  38  84 SE5       29.95S
MT. CLEMENS    MOCLDY    48  37  66 SW6       29.93R
PONTIAC        MOCLDY    45  36  70 SW6       29.91S
PORT HOPE        N/A     46  36  68 SW9G20    29.87R
PORT HURON     MOCLDY    46  34  61 SW6       29.94R
TRI CITIES     CLOUDY    45  36  70 SW10      29.89S
MIDLAND        CLOUDY    45  33  63 SW10      29.87S
TROY           PTCLDY    48  34  59 SW3       29.95F
SAGINAW HB     CLOUDY    45  32  61 SW10      29.89S
$$
MIZ043>046-050>051-056>058-064>065-071>073-077>080-281200-
SOUTHWEST LOWER MICHIGAN

CITY           SKY/WX    TMP DP  RH WIND       PRES   REMARKS
BATTLE CREEK   MOCLDY    42  37  82 CALM      29.91S
BENTON HARBOR  CLOUDY    41  38  89 CALM      29.91R
BIG RAPIDS     CLOUDY    39  31  72 W9G21     29.86R WCI  33
COLDWATER      CLOUDY    42  39  89 CALM      29.91S
FREMONT        FAIR      38  31  76 W6        29.88R WCI  33
HOLLAND        CLOUDY    45  37  73 W8        29.90R
GRAND RAPIDS   CLOUDY    45  37  73 SW9       29.89S
IONIA          CLOUDY    44  35  69 SW9       29.89S
KALAMAZOO      CLOUDY    40  35  83 CALM      29.91S
LUDINGTON      CLOUDY    39  34  80 W12       29.86R WCI  32
MARSHALL       PTCLDY    40  39  95 CALM      29.90F
MOUNT PLEASANT CLOUDY    44  34  69 SW9       29.86S
MUSKEGON       MOCLDY    40  34  79 W9        29.90R WCI  34
SOUTH HAVEN    CLOUDY    43  38  84 CALM      29.91R
$$
MIZ016>042-281200-
NORTHERN LOWER MICHIGAN

CITY           SKY/WX    TMP DP  RH WIND       PRES   REMARKS
ALPENA         CLOUDY    43  36  76 SW13      29.83R
BEAVER ISLAND  CLOUDY    35  30  83 W14G21    29.80R WCI  26
BELLAIRE       CLOUDY    38  35  90 SW6       29.83S WCI  33
CADILLAC       CLOUDY    37  33  84 SW10      29.82R WCI  30
CHARLEVOIX     CLOUDY    36  36 100 W13G18    29.84S FOG     WCI  27
FRANKFORT      CLOUDY    38  32  81 W10G17    29.84S WCI  30
GAYLORD        LGT RAIN  38  33  82 SW10      29.80R WCI  31
GRAYLING       CLOUDY    37  35  90 SW7       29.83R WCI  32
HARBOR SPRINGS LGT RAIN  35  34  98 W7        29.81R WCI  29
HOUGHTON LAKE  CLOUDY    40  33  76 SW13      29.84R WCI  32
MANISTEE       CLOUDY    39  33  79 W13G22    29.85R WCI  31
OSCODA         CLOUDY    44  33  65 SW15G22   29.85S
PELLSTON       CLOUDY    36  32  85 W8        29.82R FOG     WCI  30
ROGERS CITY    MIX PCPN  38  36  91 NW5       29.83R WCI  35
TRAVERSE CITY  CLOUDY    39  35  86 SW6       29.82R WCI  35
$$
MIZ007>008-015-281200-
EASTERN UPPER MICHIGAN

CITY           SKY/WX    TMP DP  RH WIND       PRES   REMARKS
KINROSS        CLOUDY    34  31  88 SW10G17   29.78R WCI  26
MACKINAC ISLAN CLOUDY    36  31  82 W14G25    29.80R WCI  27
NEWBERRY       CLOUDY    32  31  95 SW9       29.76R WCI  24
S. S. MARIE    CLOUDY    35  32  88 SW12      29.77R WCI  27
MUNISING         N/A     32  28  85 S6        29.76R WCI  26
$$
MIZ004>006-011>014-085-281200-
CENTRAL UPPER MICHIGAN

CITY           SKY/WX    TMP DP  RH WIND       PRES   REMARKS
MANISTIQUE     CLOUDY    32  29  91 W6        29.78R WCI  26
ESCANABA       CLOUDY    31  29  92 SW10      29.81R WCI  22
MENOMINEE      CLOUDY    34  23  64 W13G22    29.83R WCI  25
SAWYER-GWINN   CLOUDY    28  25  86 SW9       29.74R WCI  20
$$
MIZ001>003-009>011-084-281200-
WESTERN UPPER MICHIGAN

CITY           SKY/WX    TMP DP  RH WIND       PRES   REMARKS
IRON MOUNTAIN  CLOUDY    30  24  78 SW7       29.75R WCI  23
HOUGHTON       FLURRIES  30  25  81 SW12      29.67R WCI  20
COPPER HARBOR    N/A     31  27  85 VRB5      29.67R WCI  26
IRONWOOD       CLOUDY    28  25  88 W13G22    29.74R WCI  17
$$

ABBREVIATIONS USED IN REMARKS
   TC - TEMPERATURE IN CELSIUS
  WCI - WIND CHILL INDEX
   HX - HEAT INDEX
  VSB - VISIBILITY





USA.gov is the U.S. government's official web portal to all federal, state and local government web resources and services.